Stations météo

réclame
Mon MeteoGroup
Hyeres, France (7667): Température de l'air & dewpoint: 14.10.2018 05:00:00 - 20.10.2018 05:00:00 (CEST)Hyeres, France (7667): Température de l'air 5cm: 14.10.2018 05:00:00 - 20.10.2018 05:00:00 (CEST)Hyeres, France (7667): Vitesse du vent & gusts: 14.10.2018 05:00:00 - 20.10.2018 05:00:00 (CEST)Hyeres, France (7667): Direction du vent: 14.10.2018 05:00:00 - 20.10.2018 05:00:00 (CEST)Hyeres, France (7667): reduced air pressure: 14.10.2018 05:00:00 - 20.10.2018 05:00:00 (CEST)Hyeres, France (7667): visibility: 14.10.2018 05:00:00 - 20.10.2018 05:00:00 (CEST)Hyeres, France (7667): Quantités de précipitations: 14.10.2018 05:00:00 - 20.10.2018 05:00:00 (CEST)
Date & Time tt [°C] td [°C] tt 5cm [°C] ff [km/h] ff [knt] fx [km/h] fx [knt] dd ppp [hPa] vv [km] rr [mm]
20.10.2018 05:00:00 - - - - - - - - - - -
20.10.2018 04:00:00 14,8 13,2 12,2 6 4 9 5 N 1019,8 13 0,0
20.10.2018 03:00:00 14,6 13,1 11,9 8 4 8 5 NNE 1019,9 9 0,0
20.10.2018 02:00:00 16,5 13,6 13,2 3 2 16 8 NNW 1019,8 14 0,0
20.10.2018 01:00:00 18,0 14,1 14,2 10 5 22 12 NNW 1019,6 12 0,0
20.10.2018 00:00:00 16,7 14,3 12,7 12 7 17 9 NW 1019,4 10 0,0
19.10.2018 23:00:00 16,2 14,4 13,5 4 2 9 5 N 1019,3 6 0,0
19.10.2018 22:00:00 16,4 14,9 13,9 5 3 9 5 NNW 1019,2 6 0,0
19.10.2018 21:00:00 17,5 15,7 14,2 4 2 8 4 NNE 1018,9 3,1 0,0
19.10.2018 20:00:00 18,8 15,8 14,5 3 2 8 5 W 1018,6 8 0,0
19.10.2018 19:00:00 20,7 16,3 17,1 4 2 6 4 SE 1017,8 15 0,0
19.10.2018 18:00:00 21,8 16,5 21,4 5 3 16 8 E 1017,2 20 0,0
19.10.2018 17:00:00 22,5 16,3 24,4 10 5 17 9 E 1017,0 20 0,0
19.10.2018 16:00:00 22,7 16,3 25,8 10 6 21 12 ESE 1016,8 20 0,0
19.10.2018 15:00:00 23,2 16,3 26,8 11 6 27 15 ESE 1016,7 20 0,0
19.10.2018 14:00:00 23,3 16,3 27,3 16 9 28 15 ESE 1017,2 18 0,0
19.10.2018 13:00:00 23,6 15,6 26,2 18 10 32 17 E 1017,6 18 0,0
19.10.2018 12:00:00 23,3 15,6 25,3 21 11 30 16 E 1017,7 19 0,0
19.10.2018 11:00:00 22,9 15,0 25,3 19 10 29 16 E 1017,5 20 0,0
19.10.2018 10:00:00 21,6 15,0 21,9 9 5 14 7 NNE 1017,1 23 0,0
19.10.2018 09:00:00 18,7 14,6 13,9 4 2 10 6 N 1016,5 28 0,0
19.10.2018 08:00:00 16,1 13,4 13,5 4 2 12 7 NW 1015,6 37 0,0
19.10.2018 07:00:00 15,9 13,6 13,5 6 4 15 8 N 1015,4 31 0,0
19.10.2018 06:00:00 16,5 13,6 13,2 9 5 13 7 NW 1015,4 36 0,0
19.10.2018 05:00:00 16,9 13,8 14,2 4 2 11 6 N 1014,9 37 0,0
19.10.2018 04:00:00 17,1 13,8 14,5 6 3 13 7 NW 1015,0 41 0,0
19.10.2018 03:00:00 17,2 13,7 14,2 5 3 11 6 NNW 1014,9 37 0,0
19.10.2018 02:00:00 17,0 13,9 14,0 5 3 10 5 NNW 1015,1 36 0,0
19.10.2018 01:00:00 17,3 14,0 13,9 5 3 11 6 N 1014,7 26 0,0
19.10.2018 00:00:00 18,1 14,0 14,8 4 2 13 7 N 1014,5 35 0,0
18.10.2018 23:00:00 17,7 14,0 14,6 5 3 11 6 NNW 1014,4 27 0,0
18.10.2018 22:00:00 18,4 13,7 15,5 8 4 13 7 N 1013,8 44 0,0
18.10.2018 21:00:00 19,1 14,1 16,3 9 5 16 9 N 1013,4 44 0,0
18.10.2018 20:00:00 19,3 14,3 16,0 9 5 12 7 N 1013,2 44 0,0
18.10.2018 19:00:00 20,2 14,8 17,5 7 4 19 10 N 1012,9 44 0,0
18.10.2018 18:00:00 22,0 15,6 20,8 9 5 23 13 NE 1012,5 43 0,0
18.10.2018 17:00:00 23,6 15,1 24,4 18 10 31 17 ENE 1012,3 44 0,0
18.10.2018 16:00:00 23,9 15,1 24,1 18 10 34 18 ENE 1012,4 37 0,0
18.10.2018 15:00:00 23,2 16,0 24,8 22 12 39 21 E 1012,7 31 0,0
18.10.2018 14:00:00 24,0 15,8 27,1 25 14 36 20 E 1013,1 19 0,0
18.10.2018 13:00:00 24,0 16,0 25,6 23 12 38 21 E 1013,5 20 0,0
18.10.2018 12:00:00 23,3 16,8 24,6 21 12 33 18 E 1013,5 53 0,0
18.10.2018 11:00:00 23,1 16,6 25,0 15 8 25 13 E 1013,5 20 0,0
18.10.2018 10:00:00 22,0 16,5 19,6 14 7 21 12 NE 1013,5 40 0,0
18.10.2018 09:00:00 19,5 15,8 16,3 14 7 19 11 NE 1013,2 37 0,0
18.10.2018 08:00:00 18,3 15,4 16,0 12 6 19 10 NNE 1013,0 35 0,0
18.10.2018 07:00:00 17,9 15,5 15,1 7 4 14 7 NNE 1013,2 27 0,0
18.10.2018 06:00:00 17,8 15,1 15,2 6 3 18 10 NNE 1012,9 26 0,0
18.10.2018 05:00:00 18,3 15,7 16,2 12 6 16 9 NNE 1013,0 20 0,0
18.10.2018 04:00:00 18,8 15,7 16,9 10 6 19 11 NNE 1013,2 29 0,0
18.10.2018 03:00:00 18,8 15,5 17,0 14 8 28 15 NNE 1013,7 32 0,0
18.10.2018 02:00:00 19,4 16,2 17,7 15 8 28 15 NE 1014,4 35 0,0
18.10.2018 01:00:00 19,4 16,1 17,7 14 7 27 15 NE 1014,4 38 0,0
18.10.2018 00:00:00 19,3 16,3 17,3 18 10 34 18 NE 1014,7 35 0,0
17.10.2018 23:00:00 18,9 16,7 17,0 16 9 31 17 NE 1014,8 20 0,0
17.10.2018 22:00:00 18,6 16,7 16,9 13 7 20 11 NE 1014,6 13 0,2
17.10.2018 21:00:00 18,3 16,5 16,7 10 5 27 14 NNE 1014,4 20 0,2
17.10.2018 20:00:00 18,1 16,9 16,7 11 6 32 17 NE 1014,7 3,9 2,6
17.10.2018 19:00:00 19,7 16,0 18,3 15 8 37 20 NE 1014,3 14 0,0
17.10.2018 18:00:00 20,6 16,2 18,0 9 5 21 11 ENE 1014,1 36 0,0
17.10.2018 17:00:00 21,4 15,7 20,7 13 7 31 17 ENE 1014,3 20 0,0
17.10.2018 16:00:00 22,3 15,9 22,4 22 12 37 20 E 1014,2 60 0,0
17.10.2018 15:00:00 22,5 16,5 22,9 14 8 33 18 ENE 1014,3 38 0,0
17.10.2018 14:00:00 22,7 17,2 23,4 18 10 32 17 ENE 1014,7 19 0,0
17.10.2018 13:00:00 22,4 16,7 22,5 17 9 29 16 ENE 1015,4 20 0,0
17.10.2018 12:00:00 21,6 16,3 22,3 11 6 27 15 NE 1016,2 42 0,0
17.10.2018 11:00:00 21,1 15,2 20,8 18 10 29 16 ENE 1016,2 46 0,0
17.10.2018 10:00:00 20,1 14,7 19,3 9 5 17 9 N 1016,2 59 0,0
17.10.2018 09:00:00 18,0 14,1 16,5 11 6 21 12 N 1016,0 55 0,0
17.10.2018 08:00:00 17,9 14,6 16,3 14 8 22 12 N 1015,9 57 0,0
17.10.2018 07:00:00 17,6 15,0 15,9 10 5 16 9 NNW 1015,9 44 0,0
17.10.2018 06:00:00 17,7 15,0 16,2 11 6 19 10 NNW 1015,9 47 0,0
17.10.2018 05:00:00 17,5 14,9 16,2 10 6 19 10 NNW 1016,1 41 0,0
17.10.2018 04:00:00 17,5 14,8 15,7 12 7 20 11 N 1016,7 38 0,0
17.10.2018 03:00:00 17,2 14,8 15,6 13 7 19 10 N 1017,2 40 0,0
17.10.2018 02:00:00 17,3 14,9 15,4 11 6 23 12 N 1017,5 40 0,2
17.10.2018 01:00:00 17,2 15,0 15,5 14 7 21 11 N 1017,7 20 0,0
17.10.2018 00:00:00 17,2 15,2 15,6 13 7 20 11 N 1018,1 13 0,0
16.10.2018 23:00:00 17,3 15,3 15,7 14 7 21 11 NNW 1018,3 13 0,0
16.10.2018 22:00:00 17,9 15,5 15,7 10 5 20 11 NE 1018,5 18 0,0
16.10.2018 21:00:00 17,1 15,4 15,7 3 2 18 10 N 1018,4 12 0,2
16.10.2018 20:00:00 17,6 16,1 16,1 8 4 16 9 NNW 1018,0 7 1,6
16.10.2018 19:00:00 19,2 15,1 17,7 9 5 22 12 NE 1017,8 14 0,0
16.10.2018 18:00:00 19,4 15,3 18,5 8 5 23 12 NE 1017,3 17 0,0
16.10.2018 17:00:00 19,5 15,6 18,7 7 4 27 15 NNE 1017,3 13 0,0
16.10.2018 16:00:00 19,2 15,3 18,8 8 4 24 13 ENE 1017,4 18 0,0
16.10.2018 15:00:00 19,4 15,9 19,6 14 7 29 16 ENE 1017,2 18 0,0
16.10.2018 14:00:00 19,4 15,5 19,1 13 7 31 17 ENE 1017,4 12 0,0
16.10.2018 13:00:00 19,0 15,3 18,0 19 10 41 22 ENE 1018,0 17 0,0
16.10.2018 12:00:00 18,9 15,8 17,9 29 16 49 26 E 1017,8 12 0,0
16.10.2018 11:00:00 18,0 16,2 16,0 9 5 22 12 NW 1017,3 8 0,4
16.10.2018 10:00:00 16,9 15,6 15,1 12 7 31 17 NE 1017,2 5 2,2
16.10.2018 09:00:00 16,4 15,1 15,1 17 9 29 16 NE 1017,0 1,9 4,5
16.10.2018 08:00:00 16,9 15,2 15,0 18 10 29 16 NE 1016,4 6 0,6
16.10.2018 07:00:00 16,3 14,8 15,0 9 5 16 9 N 1016,0 6 1,6
16.10.2018 06:00:00 16,8 15,0 15,2 11 6 16 8 NNE 1015,9 7 0,8
16.10.2018 05:00:00 18,2 15,4 16,2 12 7 38 21 NNE 1015,5 10 0,0
16.10.2018 04:00:00 19,4 15,5 16,2 23 12 47 26 E 1015,7 9 0,8
16.10.2018 03:00:00 19,5 14,5 16,1 27 14 44 24 E 1015,6 13 0,8
16.10.2018 02:00:00 18,6 16,4 16,2 17 9 53 29 ESE 1016,1 3,3 1,6
16.10.2018 01:00:00 19,8 14,8 15,8 32 17 55 30 E 1016,0 13 0,4
16.10.2018 00:00:00 19,2 15,9 15,9 28 15 52 28 E 1016,0 8 1,0
15.10.2018 23:00:00 19,2 16,1 16,4 28 15 50 27 ESE 1016,2 8 1,7
15.10.2018 22:00:00 19,1 15,8 16,2 34 18 55 30 ESE 1015,7 7 0,8
15.10.2018 21:00:00 19,2 16,1 15,9 29 16 60 32 E 1015,3 5 1,2
15.10.2018 20:00:00 19,2 14,9 15,9 37 20 59 32 E 1014,5 4,7 0,6
15.10.2018 19:00:00 19,1 15,6 15,9 34 19 68 37 E 1013,9 5 1,2
15.10.2018 18:00:00 20,0 15,6 16,4 34 18 63 34 E 1012,8 10 0,2
15.10.2018 17:00:00 19,6 15,7 16,5 40 22 64 35 E 1012,7 6 0,8
15.10.2018 16:00:00 19,8 16,1 16,9 37 20 67 36 E 1012,7 8 0,4
15.10.2018 15:00:00 21,0 15,5 19,8 40 22 72 39 E 1012,8 11 0,0
15.10.2018 14:00:00 21,0 15,5 20,6 43 23 73 39 E 1013,0 14 0,0
15.10.2018 13:00:00 21,1 15,6 20,9 39 21 70 38 E 1012,7 11 0,0
15.10.2018 12:00:00 21,2 15,1 20,7 42 23 73 40 E 1013,5 9 0,0
15.10.2018 11:00:00 21,2 14,8 20,5 35 19 69 37 E 1013,6 11 0,0
15.10.2018 10:00:00 21,3 14,2 20,6 45 24 69 38 E 1013,0 14 0,0
15.10.2018 09:00:00 21,2 14,1 19,5 40 22 68 37 E 1012,5 13 0,0
15.10.2018 08:00:00 20,8 14,7 19,2 40 22 64 35 E 1012,1 15 0,0
15.10.2018 07:00:00 20,8 14,0 19,1 36 19 63 34 E 1012,0 16 0,0
15.10.2018 06:00:00 20,6 14,5 19,1 35 19 61 33 E 1012,6 15 0,0
15.10.2018 05:00:00 20,7 15,0 19,1 35 19 63 34 E 1013,0 14 0,0
15.10.2018 04:00:00 20,8 15,3 19,1 32 18 55 30 E 1013,1 15 0,0
15.10.2018 03:00:00 20,8 14,9 19,2 32 17 54 29 E 1013,3 18 0,0
15.10.2018 02:00:00 21,0 14,6 19,2 30 16 46 25 E 1014,1 18 0,0
15.10.2018 01:00:00 20,9 14,5 19,1 29 16 48 26 E 1014,5 18 0,0
15.10.2018 00:00:00 21,0 14,6 19,3 32 17 50 27 E 1014,7 18 0,0
14.10.2018 23:00:00 21,1 15,4 19,5 30 16 51 28 E 1014,9 15 0,0
14.10.2018 22:00:00 20,9 15,0 19,2 30 16 50 27 E 1015,0 18 0,0
14.10.2018 21:00:00 20,8 15,1 19,2 23 12 46 25 E 1015,0 16 0,0
14.10.2018 20:00:00 20,8 15,1 18,9 26 14 42 23 E 1015,0 16 0,0
14.10.2018 19:00:00 20,6 15,8 19,2 22 12 46 25 E 1014,6 14 0,0
14.10.2018 18:00:00 20,8 16,4 20,2 30 16 52 28 E 1014,2 13 0,0
14.10.2018 17:00:00 21,3 16,7 21,2 32 17 53 28 E 1014,5 11 0,0
14.10.2018 16:00:00 21,5 16,2 21,0 30 16 50 27 E 1015,3 7 0,0
14.10.2018 15:00:00 21,5 16,2 22,0 29 16 51 27 E 1015,8 10 0,0
14.10.2018 14:00:00 21,4 15,7 21,6 26 14 46 25 E 1016,5 13 0,0
14.10.2018 13:00:00 21,4 16,4 22,0 27 15 47 25 E 1017,3 13 0,0
14.10.2018 12:00:00 21,4 16,8 21,5 29 15 49 26 E 1017,5 11 0,0
14.10.2018 11:00:00 21,2 17,0 20,7 26 14 46 25 E 1017,4 11 0,0
14.10.2018 10:00:00 20,9 17,5 20,0 26 14 41 22 E 1017,6 14 0,0
14.10.2018 09:00:00 20,6 17,4 19,1 26 14 40 22 E 1017,2 13 0,0
14.10.2018 08:00:00 20,3 17,1 18,2 22 12 39 21 E 1016,9 12 0,0
14.10.2018 07:00:00 20,1 16,5 16,6 18 10 35 19 ENE 1017,0 14 0,0
14.10.2018 06:00:00 18,4 16,9 14,4 11 6 22 12 NE 1017,5 12 0,0
14.10.2018 05:00:00 16,0 14,0 14,0 6 4 19 10 N 1018,0 11 0,0

tt = Température de l'air
td = dewpoint
tt 5cm = Température de l'air 5cm
ff = Vitesse du vent
fx = gusts
dd = Direction du vent
ppp = reduced air pressure
vv = visibility
rr = Quantités de précipitations

stations d'obs. à proximité